Regional Weather Roundup
Issued by NWS Little Rock, AR

Home | Current Version | Previous Version | Graphics & Text | Print | Product List | Glossary On
Versions: 1 2 3 4 5 6 7 8 9 10 11 12 13 14 15 16 17 18 19 20 21 22 23 24 25 26 27 28 29 30 31 32 33 34 35 36 37 38 39 40 41 42 43 44 45 46 47 48 49 50
112
ASUS44 KLZK 070005
RWRLZK

WEATHER ROUNDUP FOR ARKANSAS
NATIONAL WEATHER SERVICE LITTLE ROCK AR
600 PM CST SAT FEB 06 2016

NOTE: "FAIR" INDICATES FEW OR NO CLOUDS BELOW 12,000 FEET WITH NO
SIGNIFICANT WEATHER AND/OR OBSTRUCTIONS TO VISIBILITY.

ARZ001-003-010-029-070100-
NORTHWEST ARKANSAS

CITY           SKY/WX    TMP DP  RH WIND       PRES   REMARKS
FAYETTEVILLE   CLEAR     47  25  42 W6        30.26S
6HR MIN TEMP:  47; 6HR MAX TEMP:  53;

FORT SMITH     CLEAR     51  19  28 W5        30.29S
6HR MIN TEMP:  50; 6HR MAX TEMP:  57;

HARRISON       CLEAR     49  22  34 W3        30.25S
6HR MIN TEMP:  49; 6HR MAX TEMP:  53;

BENTONVILLE    CLEAR     46  25  42 SW7       30.26F
ROGERS         CLEAR     47  27  45 SW7       30.25F
6HR MIN TEMP:  47; 6HR MAX TEMP:  54;

SILOAM SPGS    CLEAR     46  25  42 W6        30.26F
6HR MIN TEMP:  46; 6HR MAX TEMP:  55;

HIGHFILL       CLEAR     46  27  47 SW6       30.25S
6HR MIN TEMP:  46; 6HR MAX TEMP:  54;

SPRINGDALE     CLEAR     50  25  37 W7        30.27S
$$

ARZ004-005-016-070100-
NORTH CENTRAL ARKANSAS

CITY           SKY/WX    TMP DP  RH WIND       PRES   REMARKS
BATESVILLE     CLEAR     46  19  34 SE6       30.29S
6HR MIN TEMP:  46; 6HR MAX TEMP:  57;

FLIPPIN        CLEAR     52  18  25 CALM      30.23F
6HR MIN TEMP:  52; 6HR MAX TEMP:  55;

MTN HOME       CLEAR     47  19  33 S3        30.24F
6HR MIN TEMP:  47; 6HR MAX TEMP:  54;

$$

ARZ040-041-070100-
WEST CENTRAL ARKANSAS

CITY           SKY/WX    TMP DP  RH WIND       PRES   REMARKS
MENA           CLEAR     50  23  34 CALM      30.27F
MOUNT IDA      CLEAR     49  20  31 CALM      30.26S
6HR MIN TEMP:  49; 6HR MAX TEMP:  58;

$$

ARZ009-017-025-026-028-070100-
NORTHEAST ARKANSAS

CITY           SKY/WX    TMP DP  RH WIND       PRES   REMARKS
CORNING        FAIR      45  23  42 S8        30.29S
JONESBORO      CLEAR     44  23  43 SW5       30.30S
6HR MIN TEMP:  44; 6HR MAX TEMP:  52;

NEWPORT        CLEAR     44  28  53 SE9       30.31S HAZE
6HR MIN TEMP:  44; 6HR MAX TEMP:  56;

WALNUT RIDGE   CLEAR     45  25  45 S10       30.29S
6HR MIN TEMP:  45; 6HR MAX TEMP:  55;

BLYTHEVILLE    CLEAR     48  27  44 SW5       30.30S
6HR MIN TEMP:  48; 6HR MAX TEMP:  57;

$$

ARZ022-023-033-042-044-070100-
CENTRAL ARKANSAS

CITY           SKY/WX    TMP DP  RH WIND       PRES   REMARKS
LITTLE ROCK    PTCLDY    47  22  37 SE6       30.30S
6HR MIN TEMP:  47; 6HR MAX TEMP:  57;

N LITTLE ROCK  PTCLDY    50  22  34 SE5       30.30S
6HR MIN TEMP:  50; 6HR MAX TEMP:  55;

JACKSONVILLE   CLEAR     46  26  44 E2        30.29S
6HR MIN TEMP:  46; 6HR MAX TEMP:  56;

SEARCY         CLEAR     46  23  40 SE5       30.31F
6HR MIN TEMP:  46; 6HR MAX TEMP:  57;

HOT SPRINGS    CLEAR     52  19  27 CALM      30.29S
6HR MIN TEMP:  52; 6HR MAX TEMP:  56;

RUSSELLVILLE   CLEAR     46  18  32 CALM      30.28S
6HR MIN TEMP:  46; 6HR MAX TEMP:  56;

CLINTON        FAIR      43  27  52 CALM      30.29S
$$

ARZ036-070100-
EAST ARKANSAS

CITY           SKY/WX    TMP DP  RH WIND       PRES   REMARKS
WEST MEMPHIS   CLEAR     46  23  40 CALM      30.30S
6HR MIN TEMP:  46; 6HR MAX TEMP:  53;

$$

ARZ050-053-066-070-073-070100-
SOUTHWEST ARKANSAS

CITY           SKY/WX    TMP DP  RH WIND       PRES   REMARKS
ARKADELPHIA    FAIR      48  33  56 CALM      30.30F
6HR MIN TEMP:  49; 6HR MAX TEMP:  59;

CAMDEN         CLEAR     50  19  29 CALM      30.30S
TEXARKANA      CLEAR     47  27  45 CALM      30.31R
6HR MIN TEMP:  47; 6HR MAX TEMP:  57;

EL DORADO      CLEAR     46  28  49 CALM      30.29F
6HR MIN TEMP:  46; 6HR MAX TEMP:  57;

DE QUEEN       CLEAR     53  23  31 S5        30.27F
6HR MIN TEMP:  53; 6HR MAX TEMP:  59;

$$

ARZ056-057-069-070100-
SOUTHEAST ARKANSAS

CITY           SKY/WX    TMP DP  RH WIND       PRES   REMARKS
PINE BLUFF     CLEAR     48  25  40 E5        30.31R
6HR MIN TEMP:  48; 6HR MAX TEMP:  56;

STUTTGART      CLEAR     52  19  28 CALM      30.32S
6HR MIN TEMP:  52; 6HR MAX TEMP:  54;

MONTICELLO     CLEAR     50  24  36 CALM      30.30R
6HR MIN TEMP:  50; 6HR MAX TEMP:  59;


$$






USA.gov is the U.S. government's official web portal to all federal, state and local government web resources and services.